Regional Weather Roundup
Issued by NWS Goodland, KS

Home | Current Version | Previous Version | Text Only | Print | Product List | Glossary On
Versions: 1 2 3 4 5 6 7 8 9 10 11 12 13 14 15 16 17 18 19 20 21 22 23 24 25 26 27 28 29 30 31 32 33 34 35 36 37 38 39 40 41 42 43 44 45 46 47 48 49 50
000
ASUS43 KGLD 180908
RWRGLD

GOODLAND FORECAST AREA HOURLY WEATHER ROUNDUP
NATIONAL WEATHER SERVICE GOODLAND KS
300 AM MDT FRI AUG 18 2017

...OFFICIAL OBSERVATIONS...

CITY           SKY/WX    TMP DP  RH WIND       PRES   REMARKS
GOODLAND KS    CLEAR     61  55  81 S13       30.02F
HILL CITY KS   CLEAR     65  58  78 SW5       29.96S
IMPERIAL NEB   PTCLDY    58  55  90 N5        30.02S
MCCOOK NEB     CLOUDY    64  58  80 NE5       29.99R
AKRON CO       CLOUDY    58  48  69 N12       30.09F
BURLINGTON CO  CLEAR     59  58  96 S9        30.06F
LIMON CO       CLOUDY    51  49  92 N8        30.15R
$$

...UNOFFICIAL OBSERVATIONS...

CITY           SKY/WX    TMP DP  RH WIND       PRES   REMARKS
LENORA KS        N/A     62  32  32 CALM        N/A
NORTON KS      CLEAR     63  52  67 SW9       29.96S
SHARON SPRINGS   N/A     60  57  89 S12         N/A
TRENTON NEB      N/A     66  32  28 CALM        N/A
KIT CARSON CO    N/A     57  52  83 CALM        N/A
YUMA CO        FAIR      57  50  77 NE3       30.07S
$$




USA.gov is the U.S. government's official web portal to all federal, state and local government web resources and services.